DL4JCP-6 Weather Reports


Display with metric or nautical units.
time (UTC)temp
F
wind
direction
speed
MPH
gust
MPH
rain 1hr
in
rain 24hr
in
rain mn
in
humidity
%
barometer
mb
20260506001813 48 157 0.0 0.0 0.01 0.72 0.01 96 1007.2
20260506000312 48 157 0.0 0.0 0.01 0.72 0.01 95 1007.4
20260505234812 49 157 0.0 0.0 0.01 0.72 0.01 95 1007.6
20260505233313 49 157 1.0 3.0 0.01 0.72 0.01 95 1007.5
20260505231812 49 157 2.0 5.0 0.00 0.71 0.00 95 1007.4
20260505230312 50 157 0.0 0.0 0.00 0.71 0.00 95 1007.2
20260505224812 50 157 1.0 2.0 0.00 0.71 0.00 95 1007.4
20260505223312 50 154 0.0 0.0 0.00 0.71 0.00 95 1007.6
20260505221811 50 154 0.0 0.0 0.03 0.71 0.00 95 1007.8
20260505220311 51 154 1.0 3.0 0.09 0.71 0.00 95 1008.1
20260505214812 51 82 1.0 3.0 0.13 0.71 0.71 95 1007.9
20260505213311 51 80 0.0 4.0 0.20 0.71 0.71 95 1008.0
20260505211812 51 80 0.0 0.0 0.22 0.68 0.68 95 1008.5
20260505210311 51 80 0.0 0.0 0.22 0.62 0.62 94 1008.5
20260505204811 51 130 0.0 0.0 0.28 0.57 0.57 94 1008.8
20260505203311 51 176 1.0 2.0 0.36 0.51 0.51 94 1009.0
20260505201811 51 176 3.0 9.0 0.35 0.46 0.46 94 1008.9
20260505194811 51 242 8.0 18.0 0.19 0.29 0.29 92 1008.2
20260505193311 53 231 16.0 27.0 0.05 0.15 0.15 89 1008.3
20260505192812 55 208 5.0 16.0 0.03 0.13 0.13 93 1008.1
20260505192311 55 207 3.0 7.0 0.02 0.12 0.12 94 1007.6
20260505191812 55 56 4.0 8.0 0.00 0.10 0.10 93 1007.0
20260505191311 55 59 4.0 10.0 0.00 0.10 0.10 93 1007.0
20260505190812 55 68 3.0 7.0 0.00 0.10 0.10 93 1006.8
20260505190311 55 66 5.0 8.0 0.00 0.10 0.10 93 1006.6
20260505185810 55 56 5.0 8.0 0.00 0.10 0.10 93 1006.7
20260505185310 55 54 4.0 11.0 0.00 0.10 0.10 93 1006.7
20260505184812 55 56 2.0 6.0 0.00 0.10 0.10 93 1006.6
20260505184311 55 72 4.0 9.0 0.00 0.10 0.10 93 1006.6
20260505183811 55 57 3.0 11.0 0.00 0.10 0.10 93 1006.5
20260505183314 56 65 2.0 11.0 0.00 0.10 0.10 93 1006.4
20260505183311 56 65 3.0 11.0 0.00 0.10 0.10 93 1006.4
20260505182811 56 61 2.0 8.0 0.00 0.10 0.10 93 1006.5
20260505182311 56 57 2.0 6.0 0.00 0.10 0.10 93 1006.6
20260505181814 56 21 1.0 2.0 0.00 0.10 0.10 93 1006.7
20260505181311 56 20 2.0 4.0 0.00 0.10 0.10 93 1006.8
20260505180815 56 20 3.0 7.0 0.00 0.10 0.10 93 1006.9
20260505180314 56 16 3.0 10.0 0.00 0.10 0.10 93 1007.0
20260505180310 56 16 2.0 10.0 0.00 0.10 0.10 93 1007.0
20260505175811 56 342 3.0 8.0 0.00 0.10 0.10 93 1007.0
20260505175310 56 28 4.0 11.0 0.00 0.10 0.10 93 1007.0
20260505174813 56 335 3.0 5.0 0.00 0.10 0.10 93 1007.1
20260505174310 56 10 3.0 7.0 0.00 0.10 0.10 93 1007.0
20260505173810 57 348 3.0 7.0 0.00 0.10 0.10 93 1006.9
20260505173313 57 22 5.0 10.0 0.00 0.10 0.10 93 1006.9
20260505173310 57 22 5.0 10.0 0.00 0.10 0.10 93 1006.9
20260505172811 57 30 5.0 8.0 0.00 0.10 0.10 93 1006.9
20260505172310 57 52 4.0 9.0 0.01 0.10 0.10 93 1006.9
20260505171814 57 25 4.0 10.0 0.01 0.10 0.10 93 1007.0
20260505171811 57 25 6.0 10.0 0.01 0.10 0.10 93 1007.0
20260505171311 57 17 5.0 10.0 0.02 0.10 0.10 93 1007.0
20260505170812 58 41 3.0 5.0 0.03 0.10 0.10 93 1007.2
20260505170313 58 24 4.0 9.0 0.05 0.10 0.10 93 1007.3
20260505170310 58 24 4.0 9.0 0.05 0.10 0.10 93 1007.3
20260505165811 58 20 3.0 9.0 0.05 0.10 0.10 93 1007.3
20260505165312 58 19 3.0 7.0 0.05 0.10 0.10 93 1007.4
20260505164813 58 5 3.0 7.0 0.05 0.10 0.10 93 1007.4
20260505164811 58 5 3.0 7.0 0.05 0.10 0.10 93 1007.4
20260505164311 58 21 4.0 7.0 0.05 0.10 0.10 92 1007.3
20260505163811 58 20 3.0 6.0 0.05 0.10 0.10 92 1007.5
20260505163311 58 5 3.0 7.0 0.05 0.10 0.10 92 1007.6
20260505162811 58 331 2.0 3.0 0.05 0.10 0.10 92 1007.6
20260505162310 58 331 1.0 4.0 0.04 0.09 0.09 91 1007.7
20260505161811 59 309 3.0 4.0 0.04 0.09 0.09 91 1007.7
20260505161310 59 293 1.0 4.0 0.03 0.09 0.09 91 1008.2
20260505160811 59 312 3.0 5.0 0.02 0.07 0.07 91 1008.2
20260505160311 59 336 2.0 3.0 0.00 0.06 0.06 91 1008.0
20260505153313 60 51 4.0 11.0 0.00 0.06 0.06 90 1008.0
20260505153310 60 51 5.0 11.0 0.00 0.06 0.06 90 1008.0
20260505152810 60 13 4.0 8.0 0.00 0.06 0.06 90 1007.9
20260505152310 60 5 2.0 5.0 0.00 0.06 0.06 89 1008.1
20260505151812 60 59 1.0 8.0 0.00 0.06 0.06 89 1008.1
20260505151810 60 59 3.0 8.0 0.00 0.06 0.06 89 1008.1
20260505151309 60 53 4.0 10.0 0.01 0.06 0.06 88 1008.1
20260505150814 60 51 4.0 7.0 0.01 0.06 0.06 88 1008.2
20260505150311 60 51 3.0 6.0 0.01 0.06 0.06 88 1008.3
20260505140317 60 82 2.0 4.0 0.01 0.05 0.05 85 1008.6
20260505140311 60 82 3.0 4.0 0.01 0.05 0.05 85 1008.6
20260505130310 63 66 3.0 8.0 0.00 0.04 0.04 79 1009.2
20260505124817 63 360 4.0 10.0 0.00 0.04 0.04 79 1009.4
20260505124811 63 360 5.0 10.0 0.00 0.04 0.04 79 1009.4
20260505124311 64 32 5.0 11.0 0.00 0.04 0.04 78 1009.4
20260505123810 64 323 6.0 9.0 0.00 0.04 0.04 78 1009.4
20260505123317 64 10 5.0 11.0 0.00 0.04 0.04 79 1009.3
20260505123310 64 10 4.0 11.0 0.00 0.04 0.04 79 1009.3
20260505122810 64 5 6.0 9.0 0.00 0.04 0.04 78 1009.4
20260505122310 65 11 7.0 11.0 0.00 0.04 0.04 76 1009.5
20260505121818 65 294 4.0 9.0 0.00 0.04 0.04 76 1009.5
20260505121814 65 294 2.0 9.0 0.00 0.04 0.04 76 1009.5
20260505121310 66 348 4.0 10.0 0.00 0.04 0.04 77 1009.7
20260505120810 65 321 3.0 9.0 0.00 0.04 0.04 77 1009.6
20260505120314 65 351 3.0 7.0 0.00 0.04 0.04 75 1009.6
20260505120310 65 351 4.0 7.0 0.00 0.04 0.04 75 1009.6
20260505115810 65 79 5.0 9.0 0.01 0.04 0.04 73 1009.8
20260505115310 65 42 4.0 6.0 0.03 0.04 0.04 74 1009.9
20260505114814 65 346 3.0 6.0 0.03 0.04 0.04 77 1009.9
20260505113317 62 81 2.0 5.0 0.03 0.04 0.04 82 1009.9
20260505111814 61 20 2.0 3.0 0.03 0.04 0.04 85 1010.0
20260505110314 61 10 3.0 5.0 0.03 0.04 0.04 83 1009.9
20260505101814 64 355 3.0 7.0 0.00 0.01 0.01 72 1010.0
20260505100314 65 309 3.0 5.0 0.00 0.01 0.01 72 1010.4
20260505094816 65 44 3.0 8.0 0.00 0.01 0.01 65 1010.4
20260505093317 66 344 4.0 8.0 0.00 0.01 0.01 69 1010.5
20260505091816 65 11 4.0 9.0 0.00 0.01 0.01 75 1010.7
20260505090314 63 28 3.0 8.0 0.00 0.01 0.01 73 1010.6
20260505084816 63 106 4.0 8.0 0.00 0.01 0.01 74 1010.7
20260505083313 61 74 2.0 4.0 0.00 0.01 0.01 79 1010.6
20260505081816 60 64 1.0 4.0 0.00 0.01 0.01 82 1010.7
20260505080313 59 63 3.0 5.0 0.00 0.01 0.01 82 1010.7
20260505074813 59 58 2.0 5.0 0.00 0.01 0.01 82 1010.9
20260505073313 59 40 0.0 3.0 0.00 0.01 0.01 84 1011.1
20260505071813 58 311 1.0 3.0 0.00 0.01 0.01 86 1011.2
20260505070313 56 175 0.0 2.0 0.00 0.01 0.01 89 1011.1
20260505064816 55 175 1.0 3.0 0.00 0.01 0.01 92 1011.0
20260505063313 53 178 0.0 0.0 0.00 0.01 0.01 92 1011.2
20260505061815 53 178 1.0 3.0 0.01 0.01 0.01 92 1011.3
20260505060312 53 178 0.0 1.0 0.01 0.01 0.01 93 1011.3
20260505054815 52 178 0.0 2.0 0.01 0.01 0.01 92 1011.4
20260505053315 52 136 1.0 4.0 0.01 0.01 0.01 91 1011.5
20260505051812 52 107 0.0 0.0 0.00 0.00 0.00 91 1011.5
20260505050312 52 107 0.0 0.0 0.00 0.00 0.00 90 1011.4
20260505040312 51 107 0.0 0.0 0.00 0.00 0.00 89 1011.6
20260505034812 51 107 0.0 0.0 0.00 0.00 0.00 89 1011.6
20260505033312 51 107 0.0 0.0 0.00 0.00 0.00 89 1011.8
20260505031812 51 107 0.0 0.0 0.00 0.00 0.00 89 1011.9
20260505030312 51 107 0.0 0.0 0.00 0.00 0.00 89 1012.0
20260505024812 51 107 0.0 0.0 0.00 0.00 0.00 89 1012.2
20260505023312 51 107 0.0 0.0 0.00 0.00 0.00 89 1012.3
20260505021811 50 107 1.0 4.0 0.00 0.00 0.00 90 1012.4
20260505020311 50 105 0.0 0.0 0.00 0.00 0.00 89 1012.2
20260505014814 51 105 0.0 0.0 0.00 0.00 0.00 88 1012.4
20260505013311 51 105 0.0 0.0 0.00 0.00 0.00 88 1012.8
20260505011811 52 105 1.0 2.0 0.00 0.00 0.00 87 1012.8
20260505010311 52 105 0.0 0.0 0.00 0.00 0.00 86 1012.9
20260505004815 54 105 0.0 0.0 0.00 0.00 0.00 85 1013.3
20260505003315 54 105 0.0 0.0 0.00 0.00 0.00 85 1013.4